VOZ845 YMML-YSSY

Flight info

Callsign VOZ845
Flight time 1h 7m
Altitude 37000
Route DOSEL Y59 RIVET
Aircraft B738/M-SDE2E3FGHIRWXY/LB1

Departure

Time 2026-04-24 02:46
Airport Melbourne Airport (YMML)

Arrival

Time 2026-04-24 03:53
Airport Sydney Kingsford Smith International Airport (YSSY)
Time Latitude Longitude Altitude Speed Heading
2026-04-24 02:20 -37.67132 144.84586 387 ft 0 kts 352°
2026-04-24 02:38 -37.67133 144.84586 387 ft 2 kts 352°
2026-04-24 02:39 -37.67158 144.84590 386 ft 4 kts 350°
2026-04-24 02:39 -37.67182 144.84594 386 ft 3 kts 346°
2026-04-24 02:39 -37.67194 144.84600 386 ft 2 kts 313°
2026-04-24 02:39 -37.67200 144.84612 386 ft 2 kts 277°
2026-04-24 02:40 -37.67199 144.84637 386 ft 3 kts 263°
2026-04-24 02:40 -37.67197 144.84651 386 ft 0 kts 262°
2026-04-24 02:42 -37.67198 144.84648 386 ft 0 kts 262°
2026-04-24 02:42 -37.67198 144.84647 386 ft 1 kts 262°
2026-04-24 02:42 -37.67201 144.84620 386 ft 7 kts 262°
2026-04-24 02:42 -37.67211 144.84515 384 ft 15 kts 270°
2026-04-24 02:43 -37.67201 144.84388 383 ft 15 kts 264°
2026-04-24 02:43 -37.67228 144.84295 381 ft 12 kts 217°
2026-04-24 02:43 -37.67310 144.84290 379 ft 13 kts 171°
2026-04-24 02:43 -37.67417 144.84309 376 ft 18 kts 171°
2026-04-24 02:44 -37.67555 144.84335 373 ft 21 kts 171°
2026-04-24 02:44 -37.67697 144.84361 370 ft 19 kts 171°
2026-04-24 02:44 -37.67805 144.84349 369 ft 17 kts 210°
2026-04-24 02:44 -37.67861 144.84218 359 ft 18 kts 262°
2026-04-24 02:45 -37.67879 144.84066 358 ft 18 kts 261°
2026-04-24 02:45 -37.67869 144.83962 359 ft 11 kts 319°
2026-04-24 02:45 -37.67774 144.83948 363 ft 20 kts 352°
2026-04-24 02:45 -37.67436 144.83886 370 ft 78 kts 351°
2026-04-24 02:46 -37.66623 144.83734 404 ft 154 kts 354°
2026-04-24 02:46 -37.65436 144.83503 954 ft 187 kts 353°
2026-04-24 02:46 -37.64110 144.83265 1868 ft 195 kts 353°
2026-04-24 02:46 -37.62791 144.83005 2980 ft 195 kts 351°
2026-04-24 02:47 -37.61366 144.82723 3388 ft 221 kts 351°
2026-04-24 02:47 -37.59779 144.82435 3852 ft 239 kts 357°
2026-04-24 02:47 -37.58124 144.82867 4848 ft 250 kts 20°
2026-04-24 02:47 -37.56507 144.83796 5701 ft 259 kts 22°
2026-04-24 02:48 -37.54871 144.84805 6676 ft 265 kts 24°
2026-04-24 02:48 -37.53196 144.85851 7565 ft 267 kts 23°
2026-04-24 02:48 -37.51563 144.86862 8715 ft 262 kts 23°
2026-04-24 02:48 -37.49909 144.87874 9574 ft 268 kts 23°
2026-04-24 02:49 -37.48222 144.88901 10475 ft 272 kts 24°
2026-04-24 02:49 -37.46465 144.89965 10856 ft 294 kts 24°
2026-04-24 02:49 -37.44536 144.91159 11038 ft 322 kts 29°
2026-04-24 02:49 -37.42806 144.93065 11547 ft 339 kts 50°
2026-04-24 02:50 -37.41395 144.95482 12239 ft 347 kts 53°
2026-04-24 02:50 -37.39990 144.98002 12930 ft 354 kts 53°
2026-04-24 02:50 -37.38592 145.00531 13667 ft 359 kts 54°
2026-04-24 02:50 -37.37154 145.03119 14402 ft 363 kts 54°
2026-04-24 02:51 -37.35686 145.05744 15081 ft 368 kts 54°
2026-04-24 02:51 -37.34196 145.08393 15770 ft 372 kts 54°
2026-04-24 02:51 -37.32686 145.11065 16461 ft 376 kts 54°
2026-04-24 02:51 -37.31173 145.13736 17128 ft 380 kts 54°
2026-04-24 02:52 -37.29626 145.16462 17761 ft 385 kts 54°
2026-04-24 02:52 -37.28056 145.19225 18424 ft 390 kts 54°
2026-04-24 02:52 -37.26487 145.21984 19022 ft 394 kts 54°
2026-04-24 02:52 -37.24884 145.24801 19605 ft 398 kts 54°
2026-04-24 02:53 -37.23269 145.27636 20229 ft 400 kts 54°
2026-04-24 02:53 -37.21637 145.30500 20825 ft 403 kts 54°
2026-04-24 02:53 -37.19996 145.33378 21383 ft 407 kts 54°
2026-04-24 02:53 -37.18359 145.36245 21953 ft 410 kts 54°
2026-04-24 02:54 -37.16685 145.39173 22511 ft 413 kts 54°
2026-04-24 02:54 -37.15001 145.42114 23017 ft 417 kts 54°
2026-04-24 02:54 -37.13297 145.45087 23542 ft 421 kts 54°
2026-04-24 02:54 -37.11581 145.48077 24053 ft 424 kts 54°
2026-04-24 02:55 -37.09873 145.51052 24491 ft 427 kts 54°
2026-04-24 02:55 -37.08126 145.54093 24940 ft 429 kts 54°
2026-04-24 02:55 -37.06367 145.57152 25364 ft 432 kts 54°
2026-04-24 02:55 -37.04621 145.60186 25753 ft 436 kts 54°
2026-04-24 02:56 -37.02839 145.63280 26148 ft 439 kts 54°
2026-04-24 02:56 -37.01043 145.66395 26542 ft 442 kts 54°
2026-04-24 02:56 -36.99237 145.69526 26920 ft 445 kts 54°
2026-04-24 02:56 -36.98025 145.71626 27169 ft 447 kts 54°
2026-04-24 02:57 -36.95598 145.75825 27657 ft 451 kts 54°
2026-04-24 02:57 -36.93755 145.79010 28074 ft 453 kts 54°
2026-04-24 02:57 -36.92524 145.81136 28312 ft 455 kts 54°
2026-04-24 02:57 -36.90046 145.85412 28784 ft 458 kts 54°
2026-04-24 02:58 -36.88776 145.87600 29050 ft 459 kts 54°
2026-04-24 02:58 -36.86913 145.90810 29353 ft 463 kts 54°
2026-04-24 02:58 -36.85017 145.94073 29680 ft 465 kts 54°
2026-04-24 02:58 -36.83100 145.97367 30007 ft 468 kts 54°
2026-04-24 02:59 -36.81180 146.00666 30311 ft 470 kts 54°
2026-04-24 02:59 -36.79271 146.03940 30621 ft 472 kts 54°
2026-04-24 02:59 -36.77329 146.07269 30895 ft 474 kts 54°
2026-04-24 02:59 -36.75379 146.10609 31159 ft 476 kts 54°
2026-04-24 03:00 -36.73427 146.13947 31512 ft 475 kts 54°
2026-04-24 03:00 -36.71480 146.17276 31885 ft 474 kts 54°
2026-04-24 03:00 -36.69562 146.20551 32250 ft 473 kts 54°
2026-04-24 03:00 -36.67623 146.23857 32616 ft 472 kts 54°
2026-04-24 03:01 -36.65679 146.27169 32970 ft 471 kts 54°
2026-04-24 03:01 -36.63748 146.30456 33323 ft 470 kts 54°
2026-04-24 03:01 -36.61817 146.33741 33678 ft 469 kts 54°
2026-04-24 03:01 -36.59891 146.37014 34013 ft 468 kts 54°
2026-04-24 03:02 -36.57967 146.40278 34331 ft 468 kts 54°
2026-04-24 03:02 -36.56033 146.43559 34623 ft 468 kts 54°
2026-04-24 03:02 -36.54108 146.46819 34898 ft 467 kts 54°
2026-04-24 03:02 -36.52206 146.50039 35159 ft 467 kts 54°
2026-04-24 03:03 -36.50275 146.53304 35421 ft 467 kts 54°
2026-04-24 03:03 -36.48344 146.56567 35678 ft 467 kts 54°
2026-04-24 03:03 -36.46414 146.59824 35943 ft 466 kts 54°
2026-04-24 03:03 -36.44512 146.63031 36191 ft 466 kts 54°
2026-04-24 03:04 -36.42579 146.66288 36432 ft 466 kts 54°
2026-04-24 03:04 -36.40641 146.69549 36691 ft 466 kts 55°
2026-04-24 03:04 -36.38739 146.72747 36947 ft 465 kts 55°
2026-04-24 03:04 -36.36812 146.75984 37192 ft 465 kts 54°
2026-04-24 03:05 -36.34890 146.79209 37440 ft 465 kts 54°
2026-04-24 03:05 -36.32955 146.82453 37465 ft 469 kts 55°
2026-04-24 03:05 -36.29083 146.88939 37476 ft 470 kts 55°
2026-04-24 03:06 -36.25213 146.95404 37471 ft 463 kts 55°
2026-04-24 03:06 -36.21380 147.01801 37483 ft 461 kts 55°
2026-04-24 03:07 -36.17568 147.08148 37475 ft 461 kts 55°
2026-04-24 03:07 -36.13739 147.14510 37471 ft 460 kts 55°
2026-04-24 03:08 -36.08008 147.24015 37468 ft 460 kts 55°
2026-04-24 03:09 -36.04169 147.30370 37476 ft 460 kts 55°
2026-04-24 03:09 -36.00329 147.36715 37471 ft 461 kts 55°
2026-04-24 03:10 -35.96512 147.43010 37469 ft 461 kts 55°
2026-04-24 03:10 -35.92657 147.49357 37470 ft 461 kts 55°
2026-04-24 03:11 -35.88789 147.55715 37467 ft 462 kts 56°
2026-04-24 03:11 -35.84946 147.62020 37468 ft 462 kts 56°
2026-04-24 03:12 -35.81067 147.68366 37468 ft 462 kts 56°
2026-04-24 03:12 -35.77215 147.74654 37463 ft 462 kts 56°
2026-04-24 03:13 -35.73333 147.80981 37466 ft 462 kts 56°
2026-04-24 03:13 -35.69449 147.87304 37464 ft 462 kts 56°
2026-04-24 03:14 -35.65583 147.93586 37469 ft 462 kts 56°
2026-04-24 03:14 -35.61696 147.99890 37469 ft 462 kts 56°
2026-04-24 03:15 -35.57824 148.06158 37464 ft 462 kts 56°
2026-04-24 03:15 -35.53924 148.12461 37471 ft 462 kts 56°
2026-04-24 03:16 -35.50024 148.18754 37458 ft 462 kts 56°
2026-04-24 03:16 -35.46152 148.24990 37474 ft 461 kts 56°
2026-04-24 03:17 -35.42250 148.31261 37461 ft 462 kts 56°
2026-04-24 03:17 -35.38344 148.37513 37470 ft 461 kts 56°
2026-04-24 03:18 -35.34459 148.43718 37472 ft 461 kts 56°
2026-04-24 03:18 -35.30552 148.49953 37471 ft 461 kts 57°
2026-04-24 03:19 -35.26663 148.56149 37469 ft 461 kts 57°
2026-04-24 03:19 -35.22745 148.62379 37471 ft 461 kts 57°
2026-04-24 03:20 -35.18816 148.68616 37468 ft 461 kts 57°
2026-04-24 03:20 -35.14918 148.74793 37473 ft 461 kts 57°
2026-04-24 03:21 -35.10990 148.81007 37479 ft 461 kts 57°
2026-04-24 03:21 -35.07089 148.87168 37476 ft 461 kts 57°
2026-04-24 03:22 -35.03159 148.93362 37468 ft 460 kts 57°
2026-04-24 03:22 -34.99227 148.99551 37472 ft 460 kts 57°
2026-04-24 03:23 -34.95310 149.05706 37034 ft 466 kts 57°
2026-04-24 03:23 -34.93315 149.08836 36512 ft 464 kts 57°
2026-04-24 03:23 -34.91328 149.11950 35877 ft 464 kts 57°
2026-04-24 03:23 -34.89368 149.15017 35242 ft 464 kts 57°
2026-04-24 03:24 -34.87377 149.18133 34583 ft 465 kts 57°
2026-04-24 03:24 -34.85383 149.21251 33862 ft 465 kts 57°
2026-04-24 03:24 -34.83401 149.24346 33371 ft 460 kts 57°
2026-04-24 03:24 -34.81467 149.27361 32877 ft 455 kts 57°
2026-04-24 03:25 -34.79525 149.30389 32398 ft 450 kts 57°
2026-04-24 03:25 -34.77603 149.33385 31932 ft 446 kts 57°
2026-04-24 03:25 -34.75701 149.36346 31472 ft 441 kts 57°
2026-04-24 03:25 -34.73864 149.39314 31020 ft 434 kts 62°
2026-04-24 03:26 -34.72404 149.42412 30783 ft 421 kts 68°
2026-04-24 03:26 -34.71045 149.45555 30350 ft 416 kts 68°
2026-04-24 03:26 -34.69718 149.48669 29862 ft 412 kts 68°
2026-04-24 03:26 -34.68419 149.51709 29414 ft 407 kts 67°
2026-04-24 03:27 -34.67110 149.54750 28945 ft 403 kts 67°
2026-04-24 03:27 -34.65805 149.57760 28480 ft 399 kts 66°
2026-04-24 03:27 -34.64509 149.60735 28019 ft 396 kts 66°
2026-04-24 03:27 -34.63223 149.63678 27567 ft 393 kts 66°
2026-04-24 03:28 -34.61943 149.66600 27122 ft 390 kts 65°
2026-04-24 03:28 -34.60689 149.69461 26688 ft 387 kts 65°
2026-04-24 03:28 -34.59424 149.72344 26250 ft 384 kts 65°
2026-04-24 03:28 -34.58168 149.75203 25812 ft 382 kts 64°
2026-04-24 03:29 -34.56921 149.78040 25381 ft 380 kts 64°
2026-04-24 03:29 -34.55693 149.80834 24949 ft 377 kts 64°
2026-04-24 03:29 -34.54459 149.83637 24524 ft 375 kts 64°
2026-04-24 03:29 -34.53231 149.86426 24095 ft 374 kts 63°
2026-04-24 03:30 -34.52003 149.89213 23585 ft 373 kts 63°
2026-04-24 03:30 -34.50795 149.91947 23117 ft 370 kts 63°
2026-04-24 03:30 -34.49583 149.94690 22725 ft 365 kts 63°
2026-04-24 03:30 -34.48388 149.97392 22321 ft 362 kts 63°
2026-04-24 03:31 -34.47199 150.00079 21898 ft 359 kts 63°
2026-04-24 03:31 -34.46020 150.02741 21477 ft 357 kts 63°
2026-04-24 03:31 -34.44849 150.05384 21055 ft 354 kts 63°
2026-04-24 03:31 -34.43702 150.07973 20663 ft 352 kts 63°
2026-04-24 03:32 -34.42545 150.10582 20256 ft 350 kts 63°
2026-04-24 03:32 -34.41392 150.13180 19847 ft 348 kts 63°
2026-04-24 03:32 -34.40248 150.15756 19446 ft 346 kts 63°
2026-04-24 03:32 -34.39124 150.18284 19049 ft 345 kts 63°
2026-04-24 03:33 -34.37986 150.20842 18624 ft 343 kts 63°
2026-04-24 03:33 -34.36856 150.23381 18172 ft 341 kts 63°
2026-04-24 03:33 -34.35736 150.25897 17754 ft 338 kts 63°
2026-04-24 03:33 -34.34619 150.28403 17344 ft 336 kts 63°
2026-04-24 03:34 -34.33527 150.30852 16949 ft 333 kts 63°
2026-04-24 03:34 -34.32429 150.33311 16547 ft 331 kts 63°
2026-04-24 03:34 -34.31335 150.35764 16156 ft 329 kts 63°
2026-04-24 03:34 -34.30248 150.38197 15765 ft 327 kts 63°
2026-04-24 03:35 -34.29179 150.40584 15383 ft 325 kts 63°
2026-04-24 03:35 -34.28105 150.42984 14997 ft 324 kts 63°
2026-04-24 03:35 -34.27027 150.45392 14615 ft 323 kts 63°
2026-04-24 03:35 -34.25959 150.47776 14224 ft 321 kts 63°
2026-04-24 03:36 -34.24897 150.50150 13795 ft 320 kts 63°
2026-04-24 03:36 -34.23850 150.52488 13389 ft 319 kts 63°
2026-04-24 03:36 -34.22795 150.54842 12984 ft 317 kts 63°
2026-04-24 03:36 -34.21747 150.57180 12608 ft 315 kts 63°
2026-04-24 03:37 -34.20704 150.59504 12225 ft 313 kts 63°
2026-04-24 03:37 -34.19665 150.61819 11840 ft 312 kts 63°
2026-04-24 03:37 -34.18631 150.64117 11466 ft 310 kts 63°
2026-04-24 03:37 -34.17615 150.66375 11096 ft 309 kts 63°
2026-04-24 03:38 -34.16600 150.68632 10913 ft 301 kts 63°
2026-04-24 03:38 -34.15594 150.70866 10463 ft 303 kts 63°
2026-04-24 03:38 -34.14592 150.73093 10191 ft 299 kts 63°
2026-04-24 03:38 -34.13613 150.75268 10024 ft 290 kts 63°
2026-04-24 03:39 -34.12671 150.77357 9934 ft 279 kts 63°
2026-04-24 03:39 -34.11735 150.79432 9494 ft 283 kts 63°
2026-04-24 03:39 -34.10797 150.81512 9177 ft 281 kts 63°
2026-04-24 03:39 -34.09865 150.83576 8899 ft 278 kts 63°
2026-04-24 03:40 -34.08947 150.85616 8674 ft 273 kts 63°
2026-04-24 03:40 -34.08052 150.87604 8466 ft 270 kts 62°
2026-04-24 03:40 -34.07156 150.89595 8260 ft 269 kts 62°
2026-04-24 03:40 -34.06273 150.91556 8050 ft 267 kts 62°
2026-04-24 03:41 -34.05384 150.93531 7850 ft 267 kts 62°
2026-04-24 03:41 -34.04494 150.95503 7654 ft 268 kts 62°
2026-04-24 03:41 -34.03601 150.97482 7441 ft 269 kts 62°
2026-04-24 03:41 -34.02696 150.99457 7237 ft 269 kts 58°
2026-04-24 03:42 -34.01364 151.01032 7017 ft 271 kts 30°
2026-04-24 03:42 -33.99583 151.01670 6829 ft 273 kts
2026-04-24 03:42 -33.97702 151.01386 6727 ft 270 kts 350°
2026-04-24 03:42 -33.95862 151.00859 6560 ft 271 kts 348°
2026-04-24 03:43 -33.94032 151.00310 6367 ft 271 kts 348°
2026-04-24 03:43 -33.92231 150.99764 6180 ft 266 kts 348°
2026-04-24 03:43 -33.90456 150.99221 6025 ft 257 kts 347°
2026-04-24 03:43 -33.88769 150.98700 5867 ft 250 kts 348°
2026-04-24 03:44 -33.87086 150.98177 5694 ft 248 kts 347°
2026-04-24 03:44 -33.85419 150.97657 5512 ft 245 kts 347°
2026-04-24 03:44 -33.83800 150.97154 5331 ft 240 kts 347°
2026-04-24 03:44 -33.82210 150.96661 5139 ft 233 kts 348°
2026-04-24 03:45 -33.80661 150.96179 4966 ft 228 kts 347°
2026-04-24 03:45 -33.79133 150.95698 4775 ft 226 kts 347°
2026-04-24 03:45 -33.77614 150.95222 4598 ft 223 kts 349°
2026-04-24 03:45 -33.76127 150.95350 4369 ft 213 kts 30°
2026-04-24 03:46 -33.75181 150.96607 4207 ft 203 kts 73°
2026-04-24 03:46 -33.75261 150.98216 4036 ft 199 kts 118°
2026-04-24 03:46 -33.76076 150.99542 3880 ft 198 kts 117°
2026-04-24 03:46 -33.76268 151.00603 3753 ft 199 kts 86°
2026-04-24 03:47 -33.75966 151.02194 3606 ft 192 kts 79°
2026-04-24 03:47 -33.75727 151.03761 3439 ft 189 kts 82°
2026-04-24 03:47 -33.75524 151.05307 3278 ft 189 kts 83°
2026-04-24 03:47 -33.75328 151.06879 3123 ft 189 kts 83°
2026-04-24 03:48 -33.75138 151.08428 3010 ft 187 kts 84°
2026-04-24 03:48 -33.74955 151.09980 2979 ft 185 kts 85°
2026-04-24 03:48 -33.75185 151.11435 2985 ft 181 kts 127°
2026-04-24 03:48 -33.76220 151.12318 2881 ft 190 kts 154°
2026-04-24 03:49 -33.77463 151.12910 2654 ft 195 kts 159°
2026-04-24 03:49 -33.78706 151.13399 2482 ft 181 kts 161°
2026-04-24 03:49 -33.79896 151.13761 2270 ft 169 kts 164°
2026-04-24 03:49 -33.81013 151.14061 2145 ft 162 kts 165°
2026-04-24 03:50 -33.82078 151.14338 2028 ft 157 kts 165°
2026-04-24 03:50 -33.83127 151.14612 1876 ft 147 kts 166°
2026-04-24 03:50 -33.84062 151.14853 1801 ft 132 kts 165°
2026-04-24 03:50 -33.84970 151.15091 1673 ft 134 kts 166°
2026-04-24 03:51 -33.85891 151.15329 1488 ft 135 kts 165°
2026-04-24 03:51 -33.86801 151.15566 1297 ft 129 kts 165°
2026-04-24 03:51 -33.87679 151.15795 1141 ft 128 kts 163°
2026-04-24 03:51 -33.88559 151.16023 972 ft 129 kts 164°
2026-04-24 03:52 -33.89452 151.16257 810 ft 130 kts 166°
2026-04-24 03:52 -33.90341 151.16492 612 ft 130 kts 166°
2026-04-24 03:52 -33.91210 151.16712 454 ft 127 kts 166°
2026-04-24 03:52 -33.92088 151.16935 281 ft 130 kts 167°
2026-04-24 03:53 -33.92959 151.17162 95 ft 128 kts 166°
2026-04-24 03:53 -33.93779 151.17378 26 ft 103 kts 168°
2026-04-24 03:53 -33.94270 151.17521 29 ft 44 kts 158°
2026-04-24 03:53 -33.94437 151.17637 29 ft 18 kts 141°
2026-04-24 03:54 -33.94509 151.17712 29 ft 10 kts 124°
2026-04-24 03:54 -33.94485 151.17779 29 ft 10 kts 24°
2026-04-24 03:54 -33.94418 151.17766 29 ft 10 kts 334°
2026-04-24 03:54 -33.94353 151.17742 29 ft 10 kts 345°
2026-04-24 03:55 -33.94289 151.17722 29 ft 9 kts 345°
2026-04-24 03:55 -33.94227 151.17702 28 ft 9 kts 345°
2026-04-24 03:55 -33.94166 151.17683 28 ft 9 kts 345°
2026-04-24 03:55 -33.94107 151.17666 28 ft 9 kts 347°
2026-04-24 03:56 -33.94046 151.17649 27 ft 9 kts 347°
2026-04-24 03:56 -33.93986 151.17634 28 ft 9 kts 348°
2026-04-24 03:56 -33.93908 151.17613 28 ft 13 kts 347°
2026-04-24 03:56 -33.93822 151.17590 28 ft 13 kts 348°
2026-04-24 03:57 -33.93746 151.17571 28 ft 9 kts 348°
2026-04-24 03:57 -33.93688 151.17561 28 ft 8 kts
2026-04-24 03:57 -33.93647 151.17605 29 ft 8 kts 61°
2026-04-24 03:57 -33.93642 151.17670 29 ft 8 kts 99°
2026-04-24 03:58 -33.93651 151.17733 29 ft 8 kts 100°
2026-04-24 03:58 -33.93657 151.17794 29 ft 7 kts 79°
2026-04-24 03:58 -33.93613 151.17819 29 ft 7 kts 11°
2026-04-24 03:58 -33.93569 151.17840 29 ft 7 kts 62°
2026-04-24 03:59 -33.93572 151.17875 29 ft 2 kts 101°
2026-04-24 03:59 -33.93575 151.17890 29 ft 2 kts 101°
2026-04-24 03:59 -33.93576 151.17900 29 ft 0 kts 101°